• In Uzbekistan
  • List of Countries
  • For 7 days
  • Water Temperature
  • Weather Map
  • Weather Widgets
  • user-avatar
    Login

    Hourly Weather Solden

    Today, 29 May, Friday

    Time Temperature Precipitation Wind Pressure Humidity
    00:00 -3°C° 0 mm 2 mps 584 mmHg 87%
    01:00 -3°C° 0 mm 2 mps 584 mmHg 87%
    02:00 -4°C° 0 mm 2 mps 584 mmHg 87%
    03:00 -4°C° 0 mm 2 mps 584 mmHg 86%
    04:00 -4°C° 0 mm 2 mps 584 mmHg 86%
    05:00 -3°C° 0 mm 2 mps 585 mmHg 80%
    06:00 -2°C° 0 mm 2 mps 585 mmHg 74%
    07:00 +1°C° 0 mm 2 mps 586 mmHg 71%
    08:00 +4°C° 0 mm 1 mps 586 mmHg 61%
    09:00 +5°C° 0 mm 1 mps 587 mmHg 52%
    10:00 +7°C° 0 mm 1 mps 587 mmHg 43%
    11:00 +8°C° 0 mm 1 mps 588 mmHg 42%
    12:00 +9°C° 0 mm 1 mps 588 mmHg 40%
    13:00 +8°C° 0 mm 2 mps 588 mmHg 38%
    14:00 +8°C° 0 mm 2 mps 587 mmHg 38%
    15:00 +8°C° 0 mm 2 mps 587 mmHg 39%
    16:00 +8°C° 0 mm 2 mps 586 mmHg 40%
    17:00 +7°C° 0 mm 2 mps 586 mmHg 49%
    18:00 +5°C° 0 mm 2 mps 585 mmHg 59%
    19:00 +4°C° 0 mm 2 mps 584 mmHg 68%
    20:00 +3°C° 0 mm 1 mps 584 mmHg 75%
    21:00 +1°C° 0 mm 1 mps 583 mmHg 81%
    22:00 0°C° 0 mm 1 mps 582 mmHg 87%
    23:00 -1°C° 0 mm 1 mps 582 mmHg 87%

    Tomorrow, 30 May, Saturday

    Time Temperature Precipitation Wind Pressure Humidity
    00:00 -1°C° 0 mm 1 mps 582 mmHg 87%
    01:00 -1°C° 0 mm 1 mps 582 mmHg 87%
    02:00 -1°C° 0 mm 1 mps 582 mmHg 87%
    03:00 -1°C° 0 mm 1 mps 582 mmHg 87%
    04:00 -1°C° 0 mm 1 mps 581 mmHg 87%
    05:00 0°C° 0 mm 1 mps 582 mmHg 81%
    06:00 +1°C° 0 mm 0 mps 583 mmHg 76%
    07:00 +3°C° 0 mm 0 mps 583 mmHg 70%
    08:00 +5°C° 0 mm 1 mps 584 mmHg 64%
    09:00 +7°C° 0 mm 1 mps 584 mmHg 58%
    10:00 +8°C° 0 mm 1 mps 585 mmHg 52%
    11:00 +9°C° 0.1 mm 1 mps 585 mmHg 52%
    12:00 +9°C° 0.1 mm 1 mps 585 mmHg 52%
    13:00 +10°C° 0.1 mm 1 mps 585 mmHg 52%
    14:00 +10°C° 0.4 mm 1 mps 585 mmHg 56%
    15:00 +8°C° 0.4 mm 2 mps 584 mmHg 60%
    16:00 +8°C° 0.4 mm 2 mps 584 mmHg 63%
    17:00 +6°C° 0.7 mm 2 mps 583 mmHg 71%
    18:00 +5°C° 0.7 mm 2 mps 583 mmHg 78%
    19:00 +5°C° 0.7 mm 1 mps 582 mmHg 85%
    20:00 +4°C° 0.3 mm 1 mps 582 mmHg 87%
    21:00 +3°C° 0.3 mm 1 mps 582 mmHg 88%
    22:00 +1°C° 0.3 mm 1 mps 582 mmHg 90%
    23:00 +1°C° 0.1 mm 1 mps 582 mmHg 90%

    Day after tomorrow, 31 May, Sunday

    Time Temperature Precipitation Wind Pressure Humidity
    00:00 +1°C° 0.1 mm 1 mps 581 mmHg 90%
    01:00 0°C° 0.1 mm 1 mps 581 mmHg 90%
    02:00 0°C° 0.1 mm 1 mps 581 mmHg 91%
    03:00 0°C° 0.1 mm 1 mps 581 mmHg 91%
    04:00 -2°C° 0.1 mm 0 mps 581 mmHg 92%
    05:00 0°C° 0 mm 0 mps 581 mmHg 88%
    06:00 +1°C° 0 mm 0 mps 582 mmHg 84%
    07:00 +2°C° 0 mm 0 mps 582 mmHg 80%
    08:00 +4°C° 0 mm 1 mps 583 mmHg 73%
    09:00 +6°C° 0 mm 1 mps 584 mmHg 66%
    10:00 +8°C° 0 mm 1 mps 585 mmHg 59%
    11:00 +8°C° 0.1 mm 1 mps 585 mmHg 58%
    12:00 +9°C° 0.1 mm 1 mps 585 mmHg 56%
    13:00 +10°C° 0.1 mm 1 mps 585 mmHg 55%
    14:00 +10°C° 0.2 mm 1 mps 585 mmHg 57%
    15:00 +9°C° 0.2 mm 2 mps 585 mmHg 59%
    16:00 +9°C° 0.2 mm 2 mps 585 mmHg 61%
    17:00 +8°C° 0.2 mm 1 mps 584 mmHg 67%
    18:00 +7°C° 0.2 mm 1 mps 584 mmHg 73%
    19:00 +6°C° 0.2 mm 1 mps 583 mmHg 79%
    20:00 +5°C° 0 mm 1 mps 583 mmHg 81%
    21:00 +3°C° 0 mm 1 mps 583 mmHg 84%
    22:00 +1°C° 0 mm 1 mps 582 mmHg 86%
    23:00 +1°C° 0 mm 1 mps 582 mmHg 86%

    1 June, Monday

    Time Temperature Precipitation Wind Pressure Humidity
    00:00 +1°C° 0 mm 1 mps 582 mmHg 86%
    01:00 0°C° 0 mm 1 mps 582 mmHg 86%
    02:00 0°C° 0 mm 1 mps 581 mmHg 85%
    03:00 0°C° 0 mm 1 mps 581 mmHg 85%
    04:00 0°C° 0 mm 1 mps 581 mmHg 84%
    05:00 +2°C° 0 mm 1 mps 582 mmHg 77%
    06:00 +2°C° 0 mm 0 mps 583 mmHg 71%
    07:00 +4°C° 0 mm 0 mps 584 mmHg 64%
    08:00 +6°C° 0 mm 0 mps 585 mmHg 58%
    09:00 +9°C° 0 mm 1 mps 586 mmHg 52%
    10:00 +11°C° 0 mm 1 mps 587 mmHg 46%
    11:00 +12°C° 0 mm 1 mps 587 mmHg 44%
    12:00 +13°C° 0 mm 1 mps 587 mmHg 42%
    13:00 +14°C° 0 mm 1 mps 587 mmHg 40%
    14:00 +14°C° 0.1 mm 2 mps 587 mmHg 42%
    15:00 +13°C° 0.1 mm 2 mps 587 mmHg 44%
    16:00 +13°C° 0.1 mm 2 mps 587 mmHg 47%
    17:00 +12°C° 0.2 mm 2 mps 586 mmHg 58%
    18:00 +10°C° 0.2 mm 1 mps 585 mmHg 69%
    19:00 +8°C° 0.2 mm 1 mps 585 mmHg 80%
    20:00 +7°C° 0.1 mm 1 mps 584 mmHg 84%
    21:00 +5°C° 0.1 mm 1 mps 584 mmHg 89%
    22:00 +3°C° 0.1 mm 1 mps 583 mmHg 94%
    23:00 +3°C° 0 mm 1 mps 583 mmHg 93%

    2 June, Tuesday

    Time Temperature Precipitation Wind Pressure Humidity
    00:00 +3°C° 0 mm 1 mps 583 mmHg 92%
    01:00 +2°C° 0 mm 1 mps 582 mmHg 92%
    02:00 +2°C° 0 mm 1 mps 582 mmHg 90%
    03:00 +2°C° 0 mm 1 mps 582 mmHg 88%
    04:00 +2°C° 0 mm 1 mps 582 mmHg 87%
    05:00 +4°C° 0 mm 1 mps 583 mmHg 81%
    06:00 +5°C° 0 mm 1 mps 584 mmHg 76%
    07:00 +6°C° 0 mm 0 mps 584 mmHg 70%
    08:00 +9°C° 0 mm 1 mps 585 mmHg 62%
    09:00 +11°C° 0 mm 1 mps 586 mmHg 53%
    10:00 +13°C° 0 mm 1 mps 587 mmHg 44%
    11:00 +13°C° 0 mm 1 mps 587 mmHg 42%
    12:00 +14°C° 0 mm 2 mps 587 mmHg 41%
    13:00 +15°C° 0 mm 2 mps 587 mmHg 40%
    14:00 +14°C° 0.2 mm 2 mps 586 mmHg 44%
    15:00 +14°C° 0.2 mm 2 mps 586 mmHg 48%
    16:00 +13°C° 0.2 mm 2 mps 585 mmHg 52%
    17:00 +12°C° 0.9 mm 2 mps 584 mmHg 62%
    18:00 +10°C° 0.9 mm 1 mps 583 mmHg 72%
    19:00 +9°C° 0.9 mm 1 mps 582 mmHg 82%
    20:00 +7°C° 0.4 mm 1 mps 582 mmHg 84%
    21:00 +5°C° 0.4 mm 1 mps 581 mmHg 87%
    22:00 +3°C° 0.4 mm 1 mps 580 mmHg 90%
    23:00 +2°C° 0.1 mm 0 mps 580 mmHg 90%

    3 June, Wednesday

    Time Temperature Precipitation Wind Pressure Humidity
    00:00 +2°C° 0.1 mm 0 mps 579 mmHg 91%
    01:00 +1°C° 0.1 mm 0 mps 579 mmHg 91%
    02:00 +2°C° 0 mm 0 mps 579 mmHg 92%
    03:00 +2°C° 0 mm 0 mps 579 mmHg 92%
    04:00 +2°C° 0 mm 0 mps 578 mmHg 92%
    05:00 +3°C° 0 mm 0 mps 579 mmHg 89%
    06:00 +4°C° 0 mm 0 mps 579 mmHg 87%
    07:00 +5°C° 0 mm 0 mps 579 mmHg 84%
    08:00 +8°C° 0.1 mm 1 mps 580 mmHg 78%
    09:00 +9°C° 0.1 mm 1 mps 580 mmHg 72%
    10:00 +10°C° 0.1 mm 1 mps 581 mmHg 66%
    11:00 +10°C° 0.4 mm 2 mps 581 mmHg 66%
    12:00 +10°C° 0.4 mm 2 mps 580 mmHg 66%
    13:00 +10°C° 0.4 mm 2 mps 580 mmHg 67%
    14:00 +10°C° 0.7 mm 2 mps 580 mmHg 71%
    15:00 +9°C° 0.7 mm 2 mps 579 mmHg 75%
    16:00 +9°C° 0.7 mm 2 mps 579 mmHg 80%
    17:00 +8°C° 0.6 mm 2 mps 578 mmHg 84%
    18:00 +8°C° 0.6 mm 1 mps 578 mmHg 88%
    19:00 +7°C° 0.6 mm 1 mps 577 mmHg 92%
    20:00 +6°C° 0.2 mm 1 mps 577 mmHg 94%
    21:00 +6°C° 0.2 mm 1 mps 577 mmHg 95%
    22:00 +5°C° 0.2 mm 1 mps 577 mmHg 97%
    23:00 +5°C° 0.2 mm 1 mps 577 mmHg 97%
    Show more